Regional Weather Roundup
Issued by NWS

Home | Current Version | Previous Version | Graphics & Text | Print | Product List | Glossary On
Versions: 1 2 3 4 5 6 7 8 9 10 11 12 13 14 15 16 17 18 19 20 21 22 23 24 25 26 27 28 29 30 31 32 33 34 35 36 37 38 39 40 41 42 43 44 45 46 47 48 49 50
351
ASUS44 KMEG 110600
RWRTN
TENNESSEE HOURLY STATE WEATHER ROUNDUP
NATIONAL WEATHER SERVICE MEMPHIS TN
1200 AM CST THU FEB 11 2016

TNZ002-004-019-021-049-052-054-088>092-110700-
WEST TENNESSEE

CITY           SKY/WX    TMP DP  RH WIND       PRES   REMARKS
MEMPHIS INTL   CLEAR     35  17  47 SE6       30.07F WCI  30
JACKSON        CLEAR     26  11  52 E7        30.13F WCI  18
DYERSBURG      CLEAR     27  12  54 E8        30.14F WCI  18
UNION CITY     CLEAR     23  16  74 E5        30.12F WCI  17
PARIS          CLOUDY    25  16  68 E5        30.13F WCI  19
LEXINGTON      CLEAR     23  12  63 E5        30.14S WCI  17
$$

TNZ008-025-027-028-033-062-065-066-110700-
NORTH MIDDLE TENNESSEE

CITY           SKY/WX    TMP DP  RH WIND       PRES   REMARKS
NASHVILLE      CLOUDY    26  20  77 E3        30.18F
CLARKSVILLE    CLOUDY    25  20  81 E5        30.17F WCI  19
COOKEVILLE     CLOUDY    25  19  80 CALM      30.15S
CROSSVILLE     CLOUDY    21  16  81 W9        30.10F WCI  11
$$

TNZ061-075-076-078-094-096-097-110700-
SOUTH MIDDLE TENNESSEE

CITY           SKY/WX    TMP DP  RH WIND       PRES   REMARKS
TULLAHOMA      CLOUDY    25  21  86 CALM      30.15F
WINCHESTER     CLOUDY    27  21  80 CALM      30.16F
MCMINNVILLE    CLOUDY    25  19  80 CALM      30.16S
COLUMBIA       CLOUDY    27  27 100 E3        30.14F
SHELBYVILLE    CLOUDY    27  21  80 E3        30.18S
$$

TNZ017-018-042-046-047-110700-
NORTHEAST TENNESSEE

CITY           SKY/WX    TMP DP  RH WIND       PRES   REMARKS
TRI CITIES     CLOUDY    20   8  60 W7        30.11F WCI  11
$$

TNZ012-013-036-069-073-074-110700-
CENTRAL EAST TENNESSEE

CITY           SKY/WX    TMP DP  RH WIND       PRES   REMARKS
KNOXVILLE      CLOUDY    25  16  68 SW7       30.16S WCI  17
OAK RIDGE      CLOUDY    27  15  61 SW3       30.18R
GATLINBURG     PTCLDY    25  10  54 W6        30.15S WCI  18
$$

TNZ083-085-099-110700-
SOUTHEAST TENNESSEE

CITY           SKY/WX    TMP DP  RH WIND       PRES   REMARKS
CHATTANOOGA    CLOUDY    30  17  58 CALM      30.18F
$$

SKY/WX REPORTED AS FAIR MEANS FEW OR NO CLOUDS BELOW
12 THOUSAND FEET.





USA.gov is the U.S. government's official web portal to all federal, state and local government web resources and services.